TimeAKST,TemperatureF,Dew PointF,Humidity,Sea Level PressureIn,VisibilityMPH,Wind Direction,Wind SpeedMPH,Gust SpeedMPH,PrecipitationIn,Events,Conditions,WindDirDegrees,DateUTC
12:16 AM,-9.4,-18.4,65,29.99,10.0,NE,8.1,-,N/A,,Overcast,40,2012-12-03 09:16:00
12:36 AM,-9.4,-18.4,65,30.00,8.0,NE,15.0,20.7,N/A,,Overcast,50,2012-12-03 09:36:00
12:56 AM,-7.6,-16.6,65,30.01,8.0,NE,13.8,17.3,N/A,,Overcast,50,2012-12-03 09:56:00
1:16 AM,-7.6,-16.6,65,30.01,9.0,NE,13.8,18.4,N/A,,Overcast,50,2012-12-03 10:16:00
1:36 AM,-7.6,-18.4,59,30.01,10.0,North,6.9,-,N/A,,Overcast,10,2012-12-03 10:36:00
1:56 AM,-9.4,-20.2,59,30.02,10.0,NNE,5.8,-,N/A,,Overcast,30,2012-12-03 10:56:00
2:16 AM,-9.4,-18.4,65,30.02,10.0,NE,5.8,-,N/A,,Overcast,50,2012-12-03 11:16:00
2:36 AM,-7.6,-16.6,65,30.02,10.0,NE,6.9,-,N/A,,Overcast,40,2012-12-03 11:36:00
2:56 AM,-9.4,-20.2,59,30.02,10.0,NE,6.9,-,N/A,,Overcast,50,2012-12-03 11:56:00
3:16 AM,-7.6,-16.6,65,30.02,10.0,NE,9.2,-,N/A,,Mostly Cloudy,50,2012-12-03 12:16:00
3:36 AM,-9.4,-20.2,59,30.02,10.0,ENE,6.9,-,N/A,,Partly Cloudy,60,2012-12-03 12:36:00
3:56 AM,-9.4,-18.4,65,30.02,10.0,ENE,8.1,-,N/A,,Partly Cloudy,60,2012-12-03 12:56:00
4:16 AM,-9.4,-18.4,65,30.02,10.0,NE,8.1,-,N/A,,Clear,50,2012-12-03 13:16:00
4:36 AM,-9.4,-18.4,65,30.02,10.0,ENE,12.7,-,N/A,,Clear,60,2012-12-03 13:36:00
4:56 AM,-9.4,-18.4,65,30.02,10.0,ENE,11.5,-,N/A,,Clear,60,2012-12-03 13:56:00
5:16 AM,-9.4,-18.4,65,30.02,10.0,NE,10.4,-,N/A,,Partly Cloudy,50,2012-12-03 14:16:00
5:36 AM,-9.4,-20.2,59,30.03,10.0,NE,9.2,-,N/A,,Mostly Cloudy,50,2012-12-03 14:36:00
5:56 AM,-9.4,-18.4,65,30.03,10.0,NE,11.5,-,N/A,,Mostly Cloudy,50,2012-12-03 14:56:00
6:16 AM,-9.4,-18.4,65,30.03,10.0,ENE,9.2,-,N/A,,Scattered Clouds,60,2012-12-03 15:16:00
6:36 AM,-7.6,-18.4,59,30.03,10.0,NE,9.2,-,N/A,,Partly Cloudy,50,2012-12-03 15:36:00
6:56 AM,-9.4,-18.4,65,30.03,10.0,ENE,10.4,-,N/A,,Clear,60,2012-12-03 15:56:00
7:16 AM,-9.4,-18.4,65,30.04,10.0,North,6.9,-,N/A,,Scattered Clouds,360,2012-12-03 16:16:00
7:36 AM,-11.2,-23.8,54,30.04,10.0,North,8.1,-,N/A,,Mostly Cloudy,360,2012-12-03 16:36:00
7:56 AM,-11.2,-20.2,64,30.03,10.0,North,6.9,-,N/A,,Partly Cloudy,10,2012-12-03 16:56:00
8:16 AM,-11.2,-20.2,64,30.03,10.0,North,6.9,-,N/A,,Clear,10,2012-12-03 17:16:00
8:36 AM,-11.2,-23.8,54,30.04,10.0,North,8.1,-,N/A,,Clear,10,2012-12-03 17:36:00
8:56 AM,-11.2,-22.0,59,30.04,10.0,North,8.1,-,N/A,,Clear,360,2012-12-03 17:56:00
9:16 AM,-13.0,-23.8,59,30.04,10.0,NNE,5.8,-,N/A,,Clear,20,2012-12-03 18:16:00
9:36 AM,-13.0,-25.6,53,30.04,10.0,NNE,8.1,-,N/A,,Clear,20,2012-12-03 18:36:00
9:56 AM,-11.2,-20.2,64,30.04,10.0,NNE,6.9,-,N/A,,Clear,20,2012-12-03 18:56:00
10:16 AM,-14.8,-25.6,58,30.04,10.0,NNE,8.1,-,N/A,,Clear,20,2012-12-03 19:16:00
10:36 AM,-14.8,-23.8,64,30.04,10.0,NNE,6.9,-,N/A,,Clear,30,2012-12-03 19:36:00
10:56 AM,-16.6,-27.4,58,30.04,10.0,NNE,8.1,-,N/A,,Clear,20,2012-12-03 19:56:00
11:16 AM,-14.8,-22.0,70,30.04,10.0,North,6.9,-,N/A,,Clear,10,2012-12-03 20:16:00
11:36 AM,-13.0,-20.2,70,30.04,10.0,North,6.9,-,N/A,,Clear,10,2012-12-03 20:36:00
11:56 AM,-14.8,-27.4,53,30.03,10.0,North,6.9,-,N/A,,Clear,10,2012-12-03 20:56:00
12:16 PM,-14.8,-22.0,70,30.04,10.0,NNE,6.9,-,N/A,,Clear,20,2012-12-03 21:16:00
12:36 PM,-14.8,-25.6,58,30.04,10.0,NNE,3.5,-,N/A,,Clear,20,2012-12-03 21:36:00
12:56 PM,-16.6,-29.2,53,30.04,10.0,NNE,4.6,-,N/A,,Clear,20,2012-12-03 21:56:00
1:16 PM,-16.6,-29.2,53,30.04,10.0,NNE,9.2,-,N/A,,Clear,20,2012-12-03 22:16:00
1:36 PM,-16.6,-25.6,64,30.05,10.0,NNE,8.1,-,N/A,,Clear,20,2012-12-03 22:36:00
1:56 PM,-20.2,-9999,N/A,30.05,10.0,NNE,9.2,-,N/A,,Clear,20,2012-12-03 22:56:00
2:16 PM,-18.4,-27.4,63,30.05,10.0,North,8.1,-,N/A,,Clear,10,2012-12-03 23:16:00
2:36 PM,-18.4,-27.4,63,30.05,10.0,North,6.9,-,N/A,,Clear,10,2012-12-03 23:36:00
2:56 PM,-20.2,-9999,N/A,30.04,10.0,North,8.1,-,N/A,,Clear,10,2012-12-03 23:56:00
3:16 PM,-18.4,-27.4,63,30.04,10.0,North,8.1,-,N/A,,Scattered Clouds,10,2012-12-04 00:16:00
3:36 PM,-16.6,-25.6,64,30.04,10.0,NNE,5.8,-,N/A,,Mostly Cloudy,20,2012-12-04 00:36:00
3:56 PM,-18.4,-29.2,58,30.05,8.0,NNE,6.9,-,N/A,,Overcast,20,2012-12-04 00:56:00
4:16 PM,-18.4,-29.2,58,30.04,10.0,North,6.9,-,N/A,,Scattered Clouds,10,2012-12-04 01:16:00
4:36 PM,-18.4,-27.4,63,30.04,10.0,NNE,8.1,-,N/A,,Partly Cloudy,20,2012-12-04 01:36:00
4:56 PM,-20.2,-29.2,63,30.05,10.0,NNE,6.9,-,N/A,,Partly Cloudy,20,2012-12-04 01:56:00
5:16 PM,-20.2,-9999,N/A,30.05,10.0,North,5.8,-,N/A,,Clear,10,2012-12-04 02:16:00
5:36 PM,-20.2,-9999,N/A,30.05,10.0,NNE,4.6,-,N/A,,Mostly Cloudy,30,2012-12-04 02:36:00
5:56 PM,-20.2,-9999,N/A,30.05,10.0,NNE,4.6,-,N/A,,Mostly Cloudy,20,2012-12-04 02:56:00
6:16 PM,-18.4,-27.4,63,30.05,9.0,North,4.6,-,N/A,,Overcast,10,2012-12-04 03:16:00
6:36 PM,-18.4,-27.4,63,30.04,10.0,North,4.6,-,N/A,,Overcast,10,2012-12-04 03:36:00
6:56 PM,-18.4,-27.4,63,30.04,2.0,North,5.8,-,N/A,,Overcast,10,2012-12-04 03:56:00
7:16 PM,-16.6,-25.6,64,30.05,0.8,North,5.8,-,N/A,,Overcast,10,2012-12-04 04:16:00
7:36 PM,-16.6,-25.6,64,30.05,0.8,North,4.6,-,N/A,,Overcast,360,2012-12-04 04:36:00
7:56 PM,-16.6,-25.6,64,30.05,1.0,North,5.8,-,N/A,,Overcast,350,2012-12-04 04:56:00
8:16 PM,-16.6,-25.6,64,30.05,1.0,North,4.6,-,N/A,,Overcast,350,2012-12-04 05:16:00
8:36 PM,-16.6,-27.4,58,30.05,0.8,North,3.5,-,N/A,,Overcast,10,2012-12-04 05:36:00
8:56 PM,-16.6,-25.6,64,30.05,0.8,North,3.5,-,N/A,,Overcast,360,2012-12-04 05:56:00
9:16 PM,-18.4,-27.4,63,30.04,0.8,NNE,3.5,-,N/A,,Overcast,20,2012-12-04 06:16:00
9:36 PM,-18.4,-27.4,63,30.04,1.0,North,6.9,-,N/A,,Overcast,10,2012-12-04 06:36:00
9:56 PM,-18.4,-25.6,70,30.04,10.0,North,4.6,-,N/A,,Overcast,360,2012-12-04 06:56:00
10:16 PM,-18.4,-27.4,63,30.03,10.0,Calm,Calm,-,N/A,,Overcast,0,2012-12-04 07:16:00
10:36 PM,-18.4,-29.2,58,30.03,10.0,Calm,Calm,-,N/A,,Overcast,0,2012-12-04 07:36:00
10:56 PM,-16.6,-25.6,64,30.03,10.0,North,5.8,-,N/A,,Overcast,350,2012-12-04 07:56:00
11:16 PM,-16.6,-23.8,70,30.03,10.0,North,4.6,-,N/A,,Overcast,10,2012-12-04 08:16:00
11:36 PM,-16.6,-25.6,64,30.03,10.0,North,5.8,-,N/A,,Overcast,360,2012-12-04 08:36:00
11:56 PM,-16.6,-27.4,58,30.04,10.0,North,5.8,-,N/A,,Overcast,350,2012-12-04 08:56:00